Weather History for Hulett, WY

Change the Weather History Date:

Monday, September 23, 2013

  Actual Average (KEFC) Record (KEFC)
Temperature  
Mean Temperature 54 °F -  
Max Temperature 64 °F 74 °F 95 °F (1958)
Min Temperature 42 °F 36 °F 26 °F (1983)
Degree Days  
Heating Degree Days 11    
Growing Degree Days 4 (Base 50)    
Moisture  
Dew Point 45 °F    
Average Humidity 70    
Maximum Humidity 94    
Minimum Humidity 37    
Precipitation  
Precipitation 0.00 in - - ()
Sea Level Pressure  
Sea Level Pressure 29.80 in    
Wind  
Wind Speed 7 mph (NW)    
Max Wind Speed 15 mph    
Max Gust Speed 22 mph    
Visibility 10 miles    
Events Rain    
Averages and records for this station are not official NWS values.
T = Trace of Precipitation, MM = Missing Value Source: NWS Daily Summary

Daily Weather History Graph

Daily Weather History Graph

Search for Another Location

Airport:

Trip Planner

Search our weather history database for the weather conditions in past years. The results will help you decide how hot, cold, wet, or windy it might be!

Date:

Astronomy

Sep. 23, 2013 Rise Set
Actual Time 6:46 AM MDT 6:53 PM MDT
Civil Twilight 6:17 AM MDT 7:22 PM MDT
Nautical Twilight 5:43 AM MDT 7:56 PM MDT
Astronomical Twilight 5:08 AM MDT 8:31 PM MDT
Moon 9:15 PM MDT (9/23) 11:19 AM MDT (9/23)
Length of Visible Light 13h 04m
Length of Day
12h 06m
Waning Gibbous, 81% of the Moon is Illuminated
Sep 23
Waning Gibbous
Sep 26
Last Quarter
Oct 4
New
Oct 11
First Quarter
Oct 18
Full

Hourly Weather History & Observations

Time (MDT) Temp. Windchill Dew Point Humidity Pressure Visibility Wind Dir Wind Speed Gust Speed Precip Events Conditions
12:15 AM 62.6 °F - 48.2 °F 59% 29.60 in 10.0 mi South 10.4 mph - N/A   Scattered Clouds
12:35 AM 62.6 °F - 48.2 °F 59% 29.60 in 10.0 mi South 6.9 mph - N/A   Scattered Clouds
12:55 AM 62.6 °F - 50.0 °F 63% 29.60 in 10.0 mi North - - N/A   Overcast
1:15 AM 62.6 °F - 48.2 °F 59% 29.61 in 10.0 mi SW 8.1 mph - N/A Rain Light Rain
1:35 AM 62.6 °F - 50.0 °F 63% 29.61 in 10.0 mi South 4.6 mph - N/A Rain Light Rain
1:55 AM 60.8 °F - 50.0 °F 68% 29.62 in 10.0 mi SW 6.9 mph - N/A   Drizzle
2:15 AM 59.0 °F - 50.0 °F 72% 29.61 in 10.0 mi West 4.6 mph - N/A Rain Light Rain
2:35 AM 59.0 °F - 51.8 °F 77% 29.60 in 10.0 mi West 4.6 mph - N/A Rain Light Rain
2:55 AM 59.0 °F - 50.0 °F 72% 29.60 in 10.0 mi WSW 6.9 mph - N/A   Overcast
3:15 AM 59.0 °F - 51.8 °F 77% 29.60 in 10.0 mi WNW 3.5 mph - N/A   Overcast
3:35 AM 57.2 °F - 51.8 °F 82% 29.61 in 10.0 mi West 4.6 mph - N/A Rain Light Rain
3:55 AM 57.2 °F - 51.8 °F 82% 29.61 in 10.0 mi West 4.6 mph - N/A Rain Light Rain
4:15 AM 55.4 °F - 51.8 °F 88% 29.61 in 10.0 mi NNW 5.8 mph - N/A   Overcast
4:35 AM 55.4 °F - 50.0 °F 82% 29.62 in 10.0 mi Calm Calm - N/A   Light Drizzle
4:55 AM 57.2 °F - 48.2 °F 72% 29.64 in 10.0 mi NW 8.1 mph - N/A Rain Rain
5:15 AM 55.4 °F - 50.0 °F 82% 29.66 in 10.0 mi NNW 6.9 mph - N/A Rain Rain
5:35 AM 55.4 °F - 50.0 °F 82% 29.67 in 10.0 mi NNW 5.8 mph - N/A Rain Light Rain
5:55 AM 53.6 °F - 50.0 °F 88% 29.69 in 7.0 mi NNW 8.1 mph - N/A Rain Rain
6:15 AM 53.6 °F - 50.0 °F 88% 29.70 in 10.0 mi NNW 9.2 mph 16.1 mph N/A Rain Light Rain
6:35 AM 51.8 °F - 48.2 °F 88% 29.71 in 10.0 mi North 6.9 mph - N/A Rain Rain
6:55 AM 51.8 °F - 48.2 °F 88% 29.73 in 10.0 mi NNW 3.5 mph - N/A Rain Light Rain
7:15 AM 51.8 °F - 48.2 °F 88% 29.73 in 10.0 mi NNW 5.8 mph - N/A Rain Rain
7:35 AM 51.8 °F - 48.2 °F 88% 29.74 in 10.0 mi NW 6.9 mph - N/A Rain Rain
7:55 AM 51.8 °F - 46.4 °F 82% 29.75 in 10.0 mi NW 4.6 mph - N/A Rain Light Rain
8:15 AM 51.8 °F - 46.4 °F 82% 29.77 in 10.0 mi NNW 4.6 mph - N/A Rain Rain
8:35 AM 51.8 °F - 48.2 °F 88% 29.77 in 7.0 mi WNW 3.5 mph - N/A Rain Rain
8:55 AM 51.8 °F - 48.2 °F 88% 29.79 in 10.0 mi NNW 6.9 mph - N/A Rain Rain
9:15 AM 51.8 °F - 48.2 °F 88% 29.80 in 10.0 mi NNW 6.9 mph - N/A Rain Light Rain
9:35 AM 51.8 °F - 48.2 °F 88% 29.81 in 10.0 mi NNW 8.1 mph - N/A Rain Light Rain
9:55 AM 51.8 °F - 50.0 °F 94% 29.82 in 10.0 mi NNW 5.8 mph - N/A Rain Light Rain
10:15 AM 51.8 °F - 50.0 °F 94% 29.82 in 10.0 mi NNW 6.9 mph - N/A Rain Light Rain
10:35 AM 51.8 °F - 50.0 °F 94% 29.82 in 10.0 mi NW 6.9 mph - N/A Rain Rain
10:55 AM 51.8 °F - 50.0 °F 94% 29.82 in 10.0 mi NNW 5.8 mph - N/A   Drizzle
11:15 AM 53.6 °F - 50.0 °F 88% 29.82 in 10.0 mi NNW 11.5 mph - N/A   Overcast
11:35 AM 51.8 °F - 50.0 °F 94% 29.82 in 10.0 mi NW 11.5 mph 20.7 mph N/A   Light Drizzle
12:15 PM 53.6 °F - 50.0 °F 88% 29.83 in 10.0 mi NNW 10.4 mph - N/A   Overcast
12:35 PM 53.6 °F - 50.0 °F 88% 29.83 in 10.0 mi NNW 11.5 mph 17.3 mph N/A   Overcast
12:55 PM 55.4 °F - 48.2 °F 77% 29.83 in 10.0 mi NNW 10.4 mph 17.3 mph N/A   Overcast
1:15 PM 57.2 °F - 48.2 °F 72% 29.82 in 10.0 mi NNW 13.8 mph 18.4 mph N/A   Overcast
1:35 PM 59.0 °F - 46.4 °F 63% 29.82 in 10.0 mi NNW 15.0 mph - N/A   Overcast
1:55 PM 60.8 °F - 46.4 °F 59% 29.82 in 10.0 mi North 11.5 mph 17.3 mph N/A   Mostly Cloudy
2:15 PM 60.8 °F - 42.8 °F 52% 29.83 in 10.0 mi NW 9.2 mph 19.6 mph N/A   Mostly Cloudy
2:35 PM 60.8 °F - 42.8 °F 52% 29.83 in 10.0 mi NNW 11.5 mph 19.6 mph N/A   Mostly Cloudy
2:55 PM 62.6 °F - 41.0 °F 45% 29.84 in 10.0 mi NNW 15.0 mph 21.9 mph N/A   Mostly Cloudy
3:15 PM 60.8 °F - 41.0 °F 48% 29.84 in 10.0 mi NW 13.8 mph 19.6 mph N/A   Scattered Clouds
3:35 PM 62.6 °F - 42.8 °F 48% 29.84 in 10.0 mi WNW 4.6 mph - N/A   Clear
3:55 PM 62.6 °F - 41.0 °F 45% 29.86 in 10.0 mi WNW 5.8 mph - N/A   Scattered Clouds
4:15 PM 62.6 °F - 41.0 °F 45% 29.86 in 10.0 mi NNW 6.9 mph - N/A   Scattered Clouds
4:35 PM 60.8 °F - 41.0 °F 48% 29.86 in 10.0 mi North 9.2 mph - N/A   Mostly Cloudy
4:55 PM 60.8 °F - 41.0 °F 48% 29.87 in 10.0 mi NNW 5.8 mph - N/A   Scattered Clouds
5:15 PM 62.6 °F - 39.2 °F 42% 29.87 in 10.0 mi NNW 9.2 mph - N/A   Clear
5:35 PM 64.4 °F - 37.4 °F 37% 29.87 in 10.0 mi NNW 10.4 mph - N/A   Scattered Clouds
5:55 PM 62.6 °F - 37.4 °F 39% 29.88 in 10.0 mi NNW 11.5 mph - N/A   Clear
6:15 PM 62.6 °F - 37.4 °F 39% 29.89 in 10.0 mi NNW 8.1 mph - N/A   Clear
6:35 PM 60.8 °F - 37.4 °F 42% 29.90 in 10.0 mi NNW 5.8 mph - N/A   Clear
6:55 PM 59.0 °F - 37.4 °F 45% 29.90 in 10.0 mi NW 3.5 mph - N/A   Clear
7:15 PM 59.0 °F - 35.6 °F 42% 29.90 in 10.0 mi NNW 3.5 mph - N/A   Clear
7:35 PM 59.0 °F - 35.6 °F 42% 29.91 in 10.0 mi Calm Calm - N/A   Clear
7:55 PM 59.0 °F - 35.6 °F 42% 29.92 in 10.0 mi Calm Calm - N/A   Clear
8:15 PM 55.4 °F - 37.4 °F 51% 29.93 in 10.0 mi Calm Calm - N/A   Clear
8:35 PM 55.4 °F - 39.2 °F 54% 29.94 in 10.0 mi SSW 3.5 mph - N/A   Clear
8:55 PM 50.0 °F - 41.0 °F 71% 29.95 in 10.0 mi South 8.1 mph - N/A   Clear
9:15 PM 50.0 °F - 41.0 °F 71% 29.95 in 10.0 mi South 6.9 mph - N/A   Clear
9:35 PM 48.2 °F - 41.0 °F 76% 29.96 in 10.0 mi SSE 6.9 mph - N/A   Clear
9:55 PM 46.4 °F 41.9 °F 41.0 °F 81% 29.96 in 10.0 mi South 9.2 mph - N/A   Clear
10:15 PM 46.4 °F 41.5 °F 41.0 °F 81% 29.97 in 10.0 mi South 10.4 mph - N/A   Clear
10:35 PM 46.4 °F 42.4 °F 39.2 °F 76% 29.97 in 10.0 mi South 8.1 mph - N/A   Clear
10:55 PM 44.6 °F 39.2 °F 39.2 °F 81% 29.97 in 10.0 mi South 10.4 mph - N/A   Clear
11:15 PM 44.6 °F 39.7 °F 37.4 °F 76% 29.97 in 10.0 mi South 9.2 mph - N/A   Clear
11:35 PM 44.6 °F 40.2 °F 37.4 °F 76% 29.98 in 10.0 mi South 8.1 mph - N/A   Clear
11:55 PM 42.8 °F 40.1 °F 37.4 °F 81% 29.98 in 10.0 mi South 4.6 mph - N/A   Clear